TimePDT,TemperatureF,Dew PointF,Humidity,Sea Level PressureIn,VisibilityMPH,Wind Direction,Wind SpeedMPH,Gust SpeedMPH,PrecipitationIn,Events,Conditions,WindDirDegrees,DateUTC
12:53 AM,54.0,36.0,51,29.92,10.0,ENE,3.5,-,N/A,,Clear,60,2012-10-08 07:53:00
1:53 AM,48.0,34.0,58,29.94,10.0,Calm,Calm,-,N/A,,Clear,0,2012-10-08 08:53:00
2:53 AM,45.0,35.1,68,29.94,10.0,Calm,Calm,-,N/A,,Clear,0,2012-10-08 09:53:00
3:53 AM,42.1,33.1,70,29.94,10.0,Calm,Calm,-,N/A,,Clear,0,2012-10-08 10:53:00
4:53 AM,41.0,33.1,73,29.95,10.0,Calm,Calm,-,N/A,,Clear,0,2012-10-08 11:53:00
5:53 AM,42.1,32.0,67,29.96,10.0,Calm,Calm,-,N/A,,Clear,0,2012-10-08 12:53:00
6:53 AM,37.0,30.9,79,29.98,10.0,East,3.5,-,N/A,,Clear,100,2012-10-08 13:53:00
7:53 AM,39.9,32.0,73,29.99,10.0,Calm,Calm,-,N/A,,Clear,0,2012-10-08 14:53:00
8:53 AM,48.0,34.0,58,30.01,10.0,Calm,Calm,-,N/A,,Clear,0,2012-10-08 15:53:00
9:53 AM,54.0,36.0,51,30.00,10.0,East,4.6,-,N/A,,Clear,100,2012-10-08 16:53:00
10:53 AM,57.9,33.1,39,29.99,10.0,Calm,Calm,-,N/A,,Clear,0,2012-10-08 17:53:00
11:53 AM,62.1,36.0,38,29.99,10.0,North,4.6,-,N/A,,Clear,350,2012-10-08 18:53:00
12:53 PM,64.9,37.0,36,29.98,10.0,Variable,4.6,-,N/A,,Clear,0,2012-10-08 19:53:00
1:53 PM,66.9,37.0,33,29.96,10.0,NNW,3.5,-,N/A,,Clear,330,2012-10-08 20:53:00
2:53 PM,70.0,37.9,31,29.95,10.0,Variable,4.6,-,N/A,,Clear,0,2012-10-08 21:53:00
3:53 PM,72.0,34.0,25,29.94,10.0,NNW,4.6,-,N/A,,Clear,340,2012-10-08 22:53:00
4:53 PM,70.0,36.0,29,29.94,10.0,Calm,Calm,-,N/A,,Clear,0,2012-10-08 23:53:00
5:53 PM,69.1,37.9,32,29.94,10.0,Calm,Calm,-,N/A,,Clear,0,2012-10-09 00:53:00
7:53 PM,55.0,42.1,62,29.96,10.0,East,4.6,-,N/A,,Clear,100,2012-10-09 02:53:00
8:53 PM,54.0,43.0,66,29.98,10.0,Calm,Calm,-,N/A,,Clear,0,2012-10-09 03:53:00
9:53 PM,53.1,41.0,64,30.01,10.0,Calm,Calm,-,N/A,,Clear,0,2012-10-09 04:53:00
10:53 PM,48.0,39.9,74,30.03,10.0,Calm,Calm,-,N/A,,Clear,0,2012-10-09 05:53:00
11:53 PM,46.9,39.9,77,30.04,10.0,Calm,Calm,-,N/A,,Clear,0,2012-10-09 06:53:00